Meeker, CO

6:25 AM MDT on August 20, 2017 (GMT -0600)
Meeker

Weather History for KEEO - April, 2014

Change the Weather History Date:

Saturday, April 26, 2014

  Actual Average Record
Temperature  
Mean Temperature 50 °F 45 °F  
Max Temperature 62 °F 60 °F 73 °F (2001)
Min Temperature 37 °F 29 °F 25 °F (2013)
Degree Days  
Heating Degree Days 15 20  
Month to date heating degree days 537 603  
Since 1 July heating degree days 7294 7335  
Cooling Degree Days 0 0  
Month to date cooling degree days 0 0  
Year to date cooling degree days 0 0  
Moisture  
Dew Point 29 °F    
Average Humidity 52    
Maximum Humidity 79    
Minimum Humidity 25    
Precipitation  
Precipitation 0.06 in 0.05 in 0.74 in (1999)
Month to date precipitation 1.40 1.30  
Year to date precipitation 5.46 4.48  
Sea Level Pressure  
Sea Level Pressure 29.41 in    
Wind  
Wind Speed 13 mph (SW)    
Max Wind Speed 36 mph    
Max Gust Speed 44 mph    
Visibility 10 miles    
Events Rain    
T = Trace of Precipitation, MM = Missing Value Source: NWS Daily Summary

Daily Weather History Graph

Daily Weather History Graph

Search for Another Location

Airport or City:

Trip Planner

Search our weather history database for the weather conditions in past years. The results will help you decide how hot, cold, wet, or windy it might be!

Date:

Astronomy

Apr. 26, 2014 Rise Set
Actual Time 6:17 AM MDT 8:01 PM MDT
Civil Twilight 5:49 AM MDT 8:30 PM MDT
Nautical Twilight 5:14 AM MDT 9:05 PM MDT
Astronomical Twilight 4:36 AM MDT 9:43 PM MDT
Moon 4:43 AM MDT (4/26) 5:33 PM MDT (4/26)
Length of Visible Light 14h 41m
Length of Day
13h 43m
Waning Crescent, 8% of the Moon is Illuminated
Apr 26
Waning Crescent
Apr 29
New
May 6
First Quarter
May 14
Full
May 21
Last Quarter

Hourly Weather History & Observations

Time (MDT) Temp. Windchill Dew Point Humidity Pressure Visibility Wind Dir Wind Speed Gust Speed Precip Events Conditions
12:15 AM 55.9 °F - 19.9 °F 25% 29.67 in 10.0 mi NW 23.0 mph 29.9 mph N/A   Overcast
12:53 AM 55.9 °F - 23.0 °F 28% 29.43 in 10.0 mi WNW 9.2 mph - N/A   Overcast
1:53 AM 52.0 °F - 27.0 °F 38% 29.44 in 10.0 mi WSW 8.1 mph - N/A   Overcast
2:53 AM 48.9 °F - 28.9 °F 46% 29.44 in 10.0 mi NE 6.9 mph - N/A   Overcast
3:53 AM 48.0 °F - 30.0 °F 50% 29.42 in 10.0 mi East 3.5 mph - N/A   Overcast
4:53 AM 52.0 °F - 26.1 °F 37% 29.39 in 10.0 mi Calm Calm - N/A   Overcast
5:53 AM 54.0 °F - 24.1 °F 31% 29.37 in 10.0 mi South 12.7 mph 20.7 mph N/A   Clear
6:53 AM 53.1 °F - 25.0 °F 34% 29.38 in 10.0 mi SSW 20.7 mph 27.6 mph N/A   Clear
8:53 AM 57.0 °F - 24.1 °F 28% 29.37 in 10.0 mi SSW 16.1 mph 29.9 mph N/A   Clear
9:53 AM 60.1 °F - 25.0 °F 26% 29.34 in 10.0 mi SSW 21.9 mph 27.6 mph N/A   Partly Cloudy
10:53 AM 57.0 °F - 25.0 °F 29% 29.36 in 10.0 mi SSE 19.6 mph 29.9 mph N/A   Mostly Cloudy
11:53 AM 60.1 °F - 27.0 °F 28% 29.31 in 10.0 mi South 16.1 mph 27.6 mph N/A   Mostly Cloudy
12:53 PM 59.0 °F - 27.0 °F 29% 29.29 in 10.0 mi SSW 20.7 mph 36.8 mph N/A   Mostly Cloudy
1:53 PM 55.0 °F - 30.9 °F 40% 29.36 in 10.0 mi WSW 27.6 mph 40.3 mph 0.00 in Rain Light Rain
2:53 PM 54.0 °F - 34.0 °F 47% 29.37 in 10.0 mi WSW 17.3 mph 25.3 mph 0.00 in   Partly Cloudy
3:48 PM 48.2 °F - 32.0 °F 54% 29.54 in 10.0 mi SW 12.7 mph - 0.00 in   Mostly Cloudy
3:53 PM 51.1 °F - 33.1 °F 50% 29.38 in 10.0 mi SW 15.0 mph 23.0 mph 0.00 in   Mostly Cloudy
4:53 PM 51.1 °F - 30.9 °F 46% 29.36 in 10.0 mi SW 13.8 mph 29.9 mph N/A   Mostly Cloudy
5:53 PM 48.0 °F - 30.9 °F 52% 29.36 in 10.0 mi SW 6.9 mph - N/A   Overcast
6:53 PM 46.9 °F - 33.1 °F 59% 29.39 in 10.0 mi WSW 9.2 mph - N/A   Overcast
7:53 PM 45.0 °F - 32.0 °F 60% 29.39 in 10.0 mi Calm Calm - 0.00 in   Partly Cloudy
8:53 PM 45.0 °F 39.7 °F 30.9 °F 58% 29.39 in 10.0 mi SW 10.4 mph - N/A   Scattered Clouds
9:53 PM 45.0 °F 39.3 °F 30.9 °F 58% 29.40 in 10.0 mi WSW 11.5 mph - N/A   Overcast
10:53 PM 39.9 °F 32.9 °F 35.1 °F 83% 29.46 in 6.0 mi West 11.5 mph - 0.00 in Rain Light Rain
11:37 PM 39.0 °F 34.0 °F 35.1 °F 86% 29.60 in 8.0 mi WSW 6.9 mph - 0.04 in Rain Light Rain
11:53 PM 39.0 °F 34.8 °F 34.0 °F 82% 29.44 in 10.0 mi West 5.8 mph - 0.05 in Rain Light Rain